Weather History for KPMP - April, 2013

Change the Weather History Date:

Saturday, April 20, 2013

  Actual Average Record
Temperature  
Mean Temperature 76 °F -  
Max Temperature 84 °F 84 °F 92 °F (1959)
Min Temperature 69 °F 66 °F 54 °F (1961)
Cooling Degree Days 12    
Growing Degree Days 26 (Base 50)    
Moisture  
Dew Point 74 °F    
Average Humidity 92    
Maximum Humidity 100    
Minimum Humidity 67    
Precipitation  
Precipitation 2.08 in - - ()
Sea Level Pressure  
Sea Level Pressure 30.02 in    
Wind  
Wind Speed 9 mph (East)    
Max Wind Speed 40 mph    
Max Gust Speed 53 mph    
Visibility 7 miles    
Events Fog , Rain , Thunderstorm    
Averages and records for this station are not official NWS values.
T = Trace of Precipitation, MM = Missing Value Source: NWS Daily Summary

Daily Weather History Graph

Daily Weather History Graph

Search for Another Location

Airport or City:

Trip Planner

Search our weather history database for the weather conditions in past years. The results will help you decide how hot, cold, wet, or windy it might be!

Date:

Astronomy

Apr. 20, 2013 Rise Set
Actual Time 6:52 AM EDT 7:46 PM EDT
Civil Twilight 6:28 AM EDT 8:10 PM EDT
Nautical Twilight 6:00 AM EDT 8:38 PM EDT
Astronomical Twilight 5:31 AM EDT 9:07 PM EDT
Moon 2:57 PM EDT (4/20) 3:09 AM EDT (4/20)
Length of Visible Light 13h 42m
Length of Day
12h 54m
Waxing Gibbous, 71% of the Moon is Illuminated
Apr 20
Waxing Gibbous
Apr 25
Full
May 2
Last Quarter
May 9
New
May 18
First Quarter

Hourly Weather History & Observations

Time (EDT) Temp. Heat Index Dew Point Humidity Pressure Visibility Wind Dir Wind Speed Gust Speed Precip Events Conditions
12:30 AM 75.2 °F - 71.6 °F 89% 30.04 in 10.0 mi SE 10.4 mph 20.7 mph N/A   Mostly Cloudy
12:53 AM 75.9 °F - 73.9 °F 94% 30.03 in 8.0 mi SSE 9.2 mph - 0.04 in Rain Light Rain
1:53 AM 75.9 °F - 73.9 °F 94% 30.02 in 10.0 mi SE 9.2 mph - 0.01 in   Scattered Clouds
2:32 AM 77.0 °F - 73.4 °F 89% 30.00 in 10.0 mi ESE 10.4 mph 17.3 mph N/A   Overcast
2:53 AM 75.9 °F - 75.0 °F 97% 30.00 in 10.0 mi East 8.1 mph - 0.00 in Rain Light Rain
3:11 AM 75.2 °F - 73.4 °F 94% 29.99 in 2.5 mi East 5.8 mph - 0.15 in Rain Heavy Rain
3:14 AM 75.2 °F - 73.4 °F 94% 30.00 in 1.8 mi East 6.9 mph - 0.19 in Rain Heavy Rain
3:31 AM 73.4 °F - 73.4 °F 100% 29.99 in 4.0 mi NNW 5.8 mph - 0.41 in Rain Light Rain
3:53 AM 75.0 °F - 73.0 °F 94% 29.99 in 10.0 mi ENE 4.6 mph - 0.41 in   Overcast
4:42 AM 75.2 °F - 73.4 °F 94% 29.98 in 10.0 mi Calm Calm - N/A   Scattered Clouds
4:53 AM 75.9 °F - 75.0 °F 97% 29.99 in 10.0 mi SW 4.6 mph - N/A   Mostly Cloudy
5:53 AM 75.9 °F - 75.0 °F 97% 29.99 in 10.0 mi WSW 4.6 mph - N/A   Clear
6:53 AM 75.9 °F - 75.0 °F 97% 30.00 in 9.0 mi Calm Calm - N/A   Scattered Clouds
7:24 AM 75.2 °F - 75.2 °F 100% 30.01 in 7.0 mi Calm Calm - N/A   Mostly Cloudy
7:48 AM 75.2 °F - 75.2 °F 100% 30.01 in 7.0 mi Calm Calm - N/A   Scattered Clouds
7:53 AM 75.9 °F - 75.9 °F 100% 30.01 in 7.0 mi Calm Calm - N/A   Partly Cloudy
8:53 AM 78.1 °F - 75.9 °F 93% 30.02 in 8.0 mi WSW 4.6 mph - N/A   Scattered Clouds
9:53 AM 81.0 °F 86.7 °F 75.0 °F 82% 30.02 in 10.0 mi WSW 10.4 mph - N/A   Mostly Cloudy
10:53 AM 82.9 °F 88.8 °F 73.0 °F 72% 30.05 in 10.0 mi West 5.8 mph - N/A   Mostly Cloudy
11:53 AM 82.9 °F 89.4 °F 73.9 °F 74% 30.04 in 10.0 mi ESE 10.4 mph - N/A   Mostly Cloudy
12:53 PM 82.9 °F 89.4 °F 73.9 °F 74% 30.03 in 10.0 mi SE 9.2 mph - N/A   Mostly Cloudy
1:53 PM 84.9 °F 92.1 °F 73.9 °F 69% 30.01 in 10.0 mi SE 11.5 mph - N/A   Mostly Cloudy
2:53 PM 84.9 °F 91.4 °F 73.0 °F 67% 29.99 in 10.0 mi SE 12.7 mph - N/A   Scattered Clouds
3:53 PM 80.1 °F 85.8 °F 77.0 °F 90% 29.98 in 3.0 mi SE 13.8 mph - 0.08 in Rain Heavy Rain
4:53 PM 79.0 °F - 77.0 °F 94% 29.96 in 4.0 mi SSE 11.5 mph - 0.11 in   Scattered Clouds
5:21 PM 73.4 °F - 73.4 °F 100% 29.99 in 1.0 mi NW 40.3 mph 52.9 mph 0.17 in Thunderstorm Overcast
5:23 PM 71.6 °F - 71.6 °F 100% 30.00 in 0.5 mi NNW 34.5 mph 52.9 mph 0.33 in Fog , Thunderstorm Unknown
5:30 PM 69.8 °F - 69.8 °F 100% 30.01 in 0.2 mi North 29.9 mph 52.9 mph 0.79 in Fog , Rain , Thunderstorm Heavy Thunderstorms and Rain
5:44 PM 69.8 °F - 69.8 °F 100% 30.02 in 0.8 mi East 19.6 mph 23.0 mph 1.41 in Rain , Thunderstorm Light Thunderstorms and Rain
5:48 PM 69.8 °F - 69.8 °F 100% 30.02 in 2.0 mi ENE 17.3 mph 23.0 mph 1.42 in Rain , Thunderstorm Thunderstorms and Rain
5:53 PM 70.0 °F - 70.0 °F 100% 30.01 in 5.0 mi NE 16.1 mph - 1.42 in Rain , Thunderstorm Light Thunderstorms and Rain
6:13 PM 71.6 °F - - N/A% 30.01 in 8.0 mi NE 9.2 mph - 0.01 in Rain Light Rain
6:53 PM 73.9 °F - - N/A% 30.02 in 8.0 mi NE 8.1 mph - 0.01 in   Mostly Cloudy
7:53 PM 75.0 °F - - N/A% 30.02 in 10.0 mi ENE 6.9 mph - N/A   Clear
8:53 PM 75.0 °F - - N/A% 30.04 in 10.0 mi East 6.9 mph - N/A   Clear
9:53 PM 75.9 °F - 73.0 °F 91% 30.08 in 10.0 mi Calm Calm - N/A   Clear
10:48 PM 75.2 °F - 73.4 °F 94% 30.08 in 10.0 mi WNW 3.5 mph - N/A   Mostly Cloudy
10:53 PM 75.0 °F - 73.9 °F 96% 30.09 in 10.0 mi WNW 3.5 mph - N/A   Mostly Cloudy
11:34 PM 77.0 °F - 75.2 °F 94% 30.09 in 10.0 mi NE 5.8 mph - N/A   Overcast
11:53 PM 75.9 °F - 73.9 °F 94% 30.09 in 10.0 mi ESE 5.8 mph - N/A   Overcast